Wind_Speed
50 52 53 54 55 57 58 58 59 60 62 63 64 65 65 66 67 67 68 68 68 69 69 69 69 69 70 70 70 70 70 70 70 70 70 70 70 70 70 71 71 71 72 72 73 74 75 75 76 77 77 78 78 79 79 80 80 80 81 81 81 81 82 82 82 83 83 83 83 83 83 83 83 83 83 83 82 82 81 81 80 80 81 82 83 85
51 52 53 54 56 57 58 59 60 61 62 63 64 65 66 66 67 67 68 68 68 68 68 69 69 69 69 69 69 69 69 69 69 69 69 69 69 70 70 70 71 71 72 73 74 75 76 76 77 78 79 80 80 81 81 82 82 83 83 83 84 84 84 84 85 85 85 85 85 85 85 85 85 85 85 84 84 84 84 83 82 82 81 81 82 83
51 53 54 55 56 57 59 59 60 61 62 63 64 65 65 66 66 67 67 67 67 68 68 68 68 68 68 68 68 68 68 68 68 68 69 69 69 69 70 70 71 72 73 74 75 76 77 78 79 80 81 82 83 83 84 84 85 85 85 86 86 86 87 87 87 87 87 87 87 87 87 87 87 86 86 86 86 86 85 85 84 84 83 82 82 82
52 53 54 56 57 58 59 60 61 62 62 63 64 65 65 66 66 66 67 67 67 67 67 67 67 67 67 67 67 67 67 67 68 68 68 69 69 70 70 71 72 73 74 76 77 78 79 81 82 83 84 84 85 86 86 87 87 88 88 88 89 89 89 90 90 90 90 90 90 90 90 89 89 89 88 88 87 87 87 87 86 86 85 85 84 83
52 54 55 56 57 58 59 60 61 62 63 63 64 65 65 65 66 66 66 66 66 66 66 66 66 66 66 66 66 66 67 67 67 68 69 69 70 70 71 72 73 75 76 77 79 80 82 83 84 85 86 87 88 88 89 90 90 90 91 91 92 92 92 93 93 93 93 93 93 93 92 92 91 91 91 90 90 89 89 88 88 87 87 86 86 85
53 54 55 56 58 59 60 60 61 62 62 63 64 64 65 65 65 66 66 66 65 65 65 65 65 65 65 65 66 66 67 67 68 68 69 70 70 71 72 74 75 76 78 79 81 82 84 85 87 88 89 90 90 91 92 92 93 93 94 94 95 95 96 96 97 97 97 96 96 96 95 95 94 94 93 93 92 92 91 90 90 89 89 88 88 87
53 54 55 57 58 59 60 60 61 62 62 63 64 64 65 65 65 65 65 65 65 65 65 65 65 65 65 65 66 66 67 67 68 69 69 70 71 72 74 75 76 78 79 81 83 84 86 87 89 90 91 92 93 94 94 95 96 97 97 98 99 99 100 100 100 100 100 100 99 99 98 98 98 97 97 96 95 95 94 93 92 91 91 90 89 89
54 55 56 57 58 59 60 60 61 62 62 63 63 64 64 65 65 65 65 65 64 64 64 64 65 65 65 66 66 67 67 68 68 69 70 71 72 73 75 76 78 79 81 82 84 86 87 88 90 91 93 94 95 96 98 99 99 100 101 101 102 102 102 103 102 102 102 101 101 101 100 100 100 99 99 99 98 98 97 96 95 94 93 92 91 90
54 55 56 57 58 59 60 61 61 62 62 63 63 64 64 64 64 64 64 64 64 64 64 64 65 65 65 66 66 67 67 68 68 69 70 71 73 74 76 78 79 81 82 84 85 87 88 90 91 93 94 96 97 99 100 101 102 103 103 103 103 103 103 103 102 102 101 101 101 100 100 100 100 100 100 100 100 100 99 99 98 97 96 95 94 93
54 55 56 57 58 59 60 61 61 62 63 63 64 64 64 64 64 64 64 64 64 64 64 64 64 65 66 66 67 67 68 68 69 70 71 72 74 76 77 79 80 82 83 85 86 88 89 91 92 94 96 98 99 101 102 102 103 103 102 102 101 101 100 100 99 99 98 98 98 97 97 97 98 98 98 99 99 100 100 100 100 100 99 98 97 95
55 56 57 58 58 59 60 61 61 62 63 63 64 65 65 64 64 64 64 64 64 64 64 64 64 65 65 66 67 67 68 68 69 71 72 73 75 77 78 80 81 83 84 85 87 88 90 92 94 95 97 99 100 101 102 102 101 100 99 98 97 97 96 95 94 94 93 93 93 92 92 93 93 94 94 95 96 97 98 99 100 100 100 100 99 98
55 56 57 58 59 60 60 61 62 62 63 63 64 64 64 65 64 64 63 64 64 64 64 64 65 65 65 66 67 68 68 69 70 71 73 74 76 78 79 81 82 83 84 86 87 89 91 93 95 97 98 99 100 100 100 99 97 96 94 93 92 91 90 89 88 87 87 86 86 85 85 86 87 87 88 89 90 92 93 95 96 98 99 100 100 100
55 56 57 58 59 60 60 61 62 62 63 63 63 63 63 64 64 64 64 64 64 64 64 64 65 66 66 67 67 68 69 70 71 72 73 75 77 79 80 81 83 84 85 87 88 90 92 94 96 98 98 99 98 98 96 94 92 90 89 87 85 84 83 82 81 80 79 78 77 77 77 78 78 79 80 81 83 84 86 88 91 93 95 97 99 100
56 56 57 58 59 60 60 61 61 62 62 63 63 63 63 64 64 64 64 64 64 64 64 64 65 66 67 67 68 69 70 70 71 73 74 76 78 79 81 82 83 84 86 87 90 92 94 95 97 97 98 97 96 94 92 89 87 85 83 81 79 77 76 74 73 72 71 70 69 69 69 69 69 70 70 72 73 75 78 80 83 86 89 92 94 97
56 57 58 58 59 60 60 61 61 62 62 63 63 63 63 64 63 63 63 64 64 64 64 64 65 66 67 68 69 70 71 71 72 73 74 76 78 80 81 82 84 85 87 88 91 93 95 96 96 96 96 94 92 90 87 84 82 79 77 74 72 70 69 67 65 64 63 62 62 61 61 61 61 61 61 63 64 66 68 71 74 78 81 85 88 92
56 57 58 59 59 60 60 61 61 62 62 63 63 63 63 63 63 63 63 63 64 64 64 64 65 66 67 68 69 70 71 72 73 74 75 76 79 81 82 83 84 86 88 90 92 94 95 96 95 94 92 90 88 85 82 79 77 74 71 69 66 64 62 61 59 58 57 56 56 55 55 55 54 54 55 55 57 58 60 63 66 69 73 77 81 85
56 57 58 59 59 60 61 61 62 62 62 62 63 62 62 62 63 63 63 64 64 64 64 64 64 65 67 69 70 71 71 72 73 74 75 76 79 81 82 83 85 87 89 91 93 94 95 94 93 91 89 86 83 80 78 75 72 69 66 64 61 59 57 56 54 53 53 52 52 51 51 51 50 50 50 51 51 52 54 56 59 62 66 70 74 79
57 57 58 59 59 60 61 61 62 62 62 62 62 62 63 63 63 63 63 64 64 64 64 65 65 65 66 68 70 72 72 73 74 75 75 77 79 81 83 84 86 87 90 91 93 94 93 92 90 87 84 81 79 76 73 70 67 65 62 60 57 55 54 52 51 51 50 50 50 49 49 49 49 48 48 48 48 49 50 52 54 57 60 64 68 72
57 58 58 59 59 60 61 61 61 62 62 62 62 62 62 63 63 63 63 64 64 64 64 65 66 67 67 69 71 72 73 74 74 75 76 77 79 81 83 85 87 88 90 91 92 92 91 89 86 83 80 77 74 71 69 66 63 61 59 57 55 53 51 50 50 49 49 49 48 48 48 48 48 47 47 47 46 46 47 49 51 53 56 59 62 66
57 58 58 59 60 60 61 61 62 62 62 62 62 62 62 63 63 63 63 64 64 64 65 65 66 67 68 69 71 73 74 74 75 76 76 77 79 81 84 85 87 89 90 91 91 90 88 86 83 79 76 73 70 67 65 62 60 58 56 54 53 52 50 50 49 48 48 48 48 48 48 48 48 47 46 46 45 46 46 47 49 50 53 55 58 61
58 58 59 59 60 60 61 61 62 62 62 62 62 62 62 63 63 63 63 64 64 64 65 65 66 67 68 70 71 73 74 75 76 76 77 78 80 82 84 86 88 89 90 90 90 88 85 82 79 76 73 70 67 65 62 60 58 56 54 53 52 51 50 49 49 48 48 48 48 48 48 48 47 47 46 46 45 45 46 46 47 49 50 52 54 57
58 59 60 60 60 61 61 62 62 62 62 62 62 62 62 63 63 63 63 63 64 64 65 65 66 67 68 70 71 73 74 75 76 77 78 79 81 83 85 87 88 89 89 88 87 85 82 79 75 72 70 67 64 62 60 58 57 55 54 53 52 51 50 50 49 49 49 48 48 48 48 48 47 47 46 45 45 45 45 46 46 47 48 49 51 53
58 59 60 61 61 61 62 62 62 62 62 62 62 62 63 62 62 63 63 63 63 64 64 65 66 67 68 70 71 73 75 76 77 78 79 80 82 84 86 87 88 88 87 86 84 82 79 75 72 69 67 64 62 61 59 58 56 55 53 52 52 51 51 50 50 50 49 49 49 49 48 48 47 47 46 45 44 44 44 45 45 46 47 47 48 50
59 60 60 61 61 62 62 62 62 62 62 62 62 63 63 63 63 62 63 63 63 64 64 65 66 67 68 70 72 73 75 76 77 79 80 81 83 84 86 87 87 87 86 84 81 78 75 72 69 66 64 62 61 59 59 57 56 55 53 52 52 51 51 50 50 50 50 50 49 49 49 48 48 47 45 45 44 44 44 44 44 45 45 45 46 47
60 60 61 61 62 62 62 62 62 62 62 62 62 63 63 62 63 63 63 63 63 64 64 65 66 67 68 70 72 73 75 77 78 79 80 82 84 85 86 86 86 85 84 82 78 75 71 69 66 64 62 61 60 59 58 57 56 55 54 53 52 51 51 50 50 50 50 50 50 50 49 49 48 47 46 44 44 43 43 43 44 44 44 44 44 45
60 61 61 62 62 62 62 62 62 62 62 62 62 62 62 62 62 62 62 63 63 63 64 65 65 66 68 69 71 73 75 77 78 79 80 82 84 85 86 86 85 83 82 79 76 72 69 66 64 62 61 60 59 59 58 58 57 55 54 53 52 51 50 50 50 50 50 50 50 49 49 49 48 47 46 44 43 43 43 43 43 43 43 43 42 42
60 61 61 62 62 62 62 62 62 63 63 62 62 62 62 61 61 62 62 62 63 63 64 64 65 66 68 69 71 73 75 77 78 79 81 82 83 84 85 85 84 82 80 77 73 69 66 64 62 61 60 59 58 58 58 58 57 56 55 53 52 51 50 50 49 49 49 49 49 49 48 48 48 47 45 44 43 42 42 42 43 43 43 42 41 41
61 61 62 62 62 62 62 62 62 62 62 62 62 61 61 61 61 61 61 62 62 63 63 64 65 66 67 69 70 72 74 76 78 79 81 82 83 83 84 83 82 80 77 74 71 67 63 61 60 60 59 58 58 58 58 58 57 56 55 54 52 51 50 50 49 49 48 48 47 47 47 47 47 46 45 43 42 42 42 42 43 43 42 41 40 39
61 62 62 62 62 62 62 62 62 62 62 61 61 61 60 60 60 60 61 61 62 62 63 64 65 66 67 69 70 72 74 76 77 79 81 82 83 83 83 82 80 78 75 73 69 65 62 59 59 59 58 58 58 58 58 59 58 57 55 53 52 51 51 50 50 49 48 47 47 46 46 46 46 45 44 43 42 41 41 42 42 42 41 40 38 37
61 62 62 62 62 62 62 62 61 61 61 60 60 60 60 59 59 59 60 60 61 62 63 64 65 66 68 69 71 72 74 76 77 79 80 81 82 82 82 80 78 76 73 70 68 65 61 59 57 57 57 57 57 58 59 59 58 57 55 53 52 51 50 50 49 49 48 47 46 46 46 45 45 44 43 42 41 41 41 42 42 41 40 38 36 35
61 61 62 62 62 62 61 61 61 60 60 60 59 59 59 58 58 59 59 60 61 62 63 64 65 67 68 69 71 72 74 76 77 79 80 80 81 81 80 78 76 74 71 67 65 63 61 59 57 56 56 57 57 58 59 59 58 57 54 52 50 49 49 49 49 48 47 46 45 45 45 44 44 43 42 41 41 40 41 41 41 40 38 36 34 32
61 61 61 61 61 61 61 60 60 59 59 59 58 58 58 58 58 58 59 60 60 61 63 64 65 67 68 69 70 72 74 75 77 79 80 80 80 79 78 75 73 71 68 65 62 61 60 59 57 56 56 56 57 58 58 59 58 56 54 51 49 47 47 47 47 47 46 45 44 44 43 43 42 42 41 40 40 40 40 40 39 38 36 34 31 29
60 60 61 61 60 60 59 59 59 58 58 58 57 57 57 57 57 58 58 59 60 61 62 64 65 67 68 70 71 72 74 75 77 78 79 79 79 78 76 73 71 68 66 63 61 60 59 58 58 57 56 56 57 57 58 58 58 56 54 51 48 46 45 45 45 45 45 44 43 42 41 41 40 40 39 38 38 38 39 38 37 36 33 31 28 26
59 59 59 59 59 58 58 58 57 57 57 57 56 56 56 56 57 57 58 59 60 61 62 64 65 67 68 70 71 72 74 75 76 78 78 78 77 76 74 71 68 65 63 61 59 59 58 58 58 58 58 57 57 58 58 59 58 57 54 51 47 45 43 43 44 44 44 43 42 41 40 39 38 37 37 37 37 37 37 36 34 32 30 28 25 22
58 58 58 58 57 57 57 57 57 56 56 56 56 55 55 56 56 57 58 59 60 61 62 64 65 67 68 69 71 72 73 75 76 77 77 77 76 74 72 69 66 63 61 59 57 57 57 58 58 58 59 59 59 59 59 59 59 57 55 51 47 44 42 42 42 43 43 42 41 40 38 37 36 35 35 35 35 35 34 33 31 29 27 24 21 18
57 57 57 56 56 56 56 56 56 55 55 55 55 55 55 55 55 56 57 58 60 61 62 64 65 67 68 69 70 71 72 74 75 76 76 75 74 72 69 66 63 61 59 57 57 56 57 57 58 59 59 60 60 60 60 60 59 58 55 52 47 43 41 40 41 42 42 41 40 39 37 36 35 34 34 33 33 33 31 29 27 25 23 20 16 13
56 55 55 55 55 55 55 55 55 55 54 54 54 54 54 54 55 56 57 58 59 60 62 63 65 67 68 69 70 71 72 73 74 75 75 74 72 70 67 64 61 59 57 56 56 57 57 58 59 60 60 61 62 62 62 61 60 59 56 52 48 43 40 39 39 40 41 40 39 38 36 35 34 33 32 32 31 30 28 26 24 22 19 15 11 9
54 54 54 54 54 54 54 54 54 54 53 53 53 53 53 54 54 55 56 57 58 60 61 63 64 66 67 69 70 71 72 73 73 74 74 73 71 68 65 62 60 57 56 55 56 57 58 59 60 61 62 62 63 63 63 63 61 59 57 53 48 43 40 38 37 38 39 39 39 37 36 34 33 32 31 30 29 27 25 22 21 18 15 11 9 11
54 53 53 53 53 53 53 53 53 53 52 52 52 52 52 53 54 55 55 56 57 59 60 61 62 64 65 67 69 70 71 72 72 72 72 71 69 66 63 60 58 56 55 55 56 57 59 60 62 63 64 64 65 65 64 64 63 61 58 54 49 44 39 36 35 36 37 38 38 36 35 33 32 31 30 28 26 24 21 19 18 15 11 10 12 15
53 53 52 52 52 52 52 52 52 52 51 51 51 51 52 53 53 54 55 56 57 57 59 60 61 62 63 65 67 68 70 71 71 71 70 69 66 64 61 58 56 55 55 55 56 58 60 61 63 64 65 66 66 66 66 65 64 62 59 55 50 44 39 35 33 34 35 36 36 35 34 32 31 30 28 26 24 21 19 17 15 12 10 13 16 18
52 52 52 52 52 51 51 51 51 51 51 51 51 51 52 52 53 54 55 55 56 57 58 58 59 61 62 64 65 67 68 69 70 69 68 67 64 62 59 57 56 55 55 56 57 58 60 62 64 65 66 67 67 67 67 67 65 63 60 56 51 45 39 34 32 32 33 34 35 34 33 32 30 28 27 24 22 19 17 16 13 11 13 17 19 19
51 51 51 51 51 50 50 50 50 50 50 50 50 51 51 52 52 53 54 54 55 56 57 57 58 59 61 62 64 66 67 68 68 68 67 65 63 61 58 56 55 55 55 56 57 58 60 62 64 65 66 67 68 68 68 68 66 64 61 57 52 46 40 34 31 30 31 33 33 33 32 31 29 27 25 22 20 17 16 14 11 11 16 20 20 19
50 50 50 50 50 50 50 50 50 50 50 50 50 51 51 51 52 52 53 53 54 55 56 56 56 57 58 60 62 64 66 66 67 66 65 64 62 60 58 56 55 55 55 56 57 59 60 62 64 65 66 67 67 68 68 68 67 65 61 57 52 47 41 35 32 30 31 31 32 32 31 30 28 26 23 20 18 16 14 12 10 14 19 21 21 19
50 50 49 49 49 49 49 49 49 49 49 49 50 50 51 51 52 52 53 53 53 54 54 55 55 56 57 59 60 62 64 65 65 65 64 63 61 59 58 56 55 55 55 56 57 59 61 62 64 65 66 66 67 67 68 68 67 65 62 58 53 47 42 37 34 32 31 31 31 31 30 29 27 25 22 19 16 14 13 11 11 17 21 22 21 19
49 49 49 49 49 48 48 48 48 48 48 49 49 50 51 51 51 52 52 52 53 53 53 54 54 55 56 58 59 61 62 63 64 64 63 62 61 59 57 56 55 55 55 56 57 59 61 62 64 65 65 66 66 66 66 67 67 66 63 59 54 48 43 39 36 34 33 32 31 30 29 28 26 23 20 17 14 13 11 10 13 19 22 22 20 19
49 48 48 48 48 48 47 47 47 48 48 48 49 50 50 51 51 51 52 52 52 52 53 53 53 54 55 56 58 59 61 61 62 62 62 61 60 59 57 56 55 54 55 56 57 59 61 62 64 65 65 65 65 64 64 65 65 65 63 59 54 49 44 40 38 36 34 33 31 30 28 27 25 22 18 15 13 11 10 10 15 20 22 22 21 20
48 48 47 47 47 47 46 46 46 47 47 48 48 49 50 50 51 51 51 51 51 52 52 52 52 53 54 55 57 58 59 60 61 61 60 60 59 58 57 55 54 54 54 55 57 59 60 62 63 64 64 64 64 63 63 63 64 64 63 60 55 50 44 40 38 36 35 33 31 30 28 26 23 20 16 13 11 10 9 11 17 22 23 22 21 20
47 47 46 46 46 46 45 45 46 46 47 47 48 49 49 50 50 50 51 51 51 51 51 51 51 52 53 55 56 57 59 59 60 60 59 59 58 57 56 55 54 53 53 54 56 58 59 61 62 63 63 63 63 62 62 62 62 63 62 60 55 50 45 40 37 35 34 32 31 29 27 25 22 18 14 11 10 9 8 12 18 22 23 22 21 20
46 46 45 45 45 44 45 45 45 45 46 47 47 48 49 49 50 50 50 51 51 50 50 50 50 51 52 54 55 57 58 59 59 59 59 58 57 57 55 54 54 53 53 54 55 57 58 59 60 61 61 62 62 62 61 61 61 61 61 59 56 51 45 40 37 34 33 31 30 28 26 24 21 17 13 10 8 7 8 12 19 23 23 22 21 20
46 45 45 44 44 44 44 44 44 45 45 46 47 47 48 49 49 50 50 50 50 50 49 49 49 50 51 53 55 56 57 58 59 59 59 58 57 56 55 54 54 53 53 53 54 56 57 58 59 59 60 61 61 62 61 61 61 61 61 59 56 51 46 41 37 34 32 30 29 27 25 23 19 15 11 8 7 7 8 13 19 24 24 22 21 20
45 44 44 43 43 43 43 43 44 44 45 45 46 47 47 48 49 49 50 50 50 49 49 49 49 49 50 52 54 55 56 57 58 58 58 58 57 56 55 54 54 53 53 53 54 55 56 57 57 58 59 60 61 62 62 62 61 61 60 59 57 52 46 41 36 33 31 29 28 26 24 21 17 13 10 7 6 5 8 14 21 25 24 23 21 20
Wind_Direction
294 295 296 297 297 298 299 300 300 301 301 301 302 302 302 301 301 301 301 301 301 301 300 300 300 300 300 300 299 299 299 299 299 299 299 299 299 299 299 298 298 298 297 297 296 296 295 294 294 293 292 292 291 290 289 288 288 287 286 285 284 283 281 280 279 278 276 275 274 273 271 270 269 267 266 265 264 262 261 260 259 258 257 256 255 253
295 296 297 298 299 299 300 301 301 302 302 302 302 302 302 302 302 302 302 302 302 302 301 301 301 301 301 301 301 301 301 301 301 301 300 300 300 300 299 299 299 298 298 297 297 296 295 295 294 293 293 292 291 290 290 289 288 287 286 285 284 283 282 281 279 278 277 276 275 273 272 271 269 268 267 265 264 263 262 260 259 258 257 256 255 253
297 298 299 299 300 301 301 302 303 303 303 303 303 303 303 303 303 303 303 303 303 303 302 302 302 302 302 302 302 302 302 302 302 302 301 301 301 300 300 299 299 299 298 298 297 297 296 295 295 294 293 292 292 291 290 289 288 287 286 285 284 283 282 281 280 278 277 276 275 274 272 271 270 268 267 266 264 263 262 261 259 258 257 255 254 253
299 299 300 301 302 302 303 303 304 304 304 304 304 304 304 304 304 304 304 304 304 304 304 304 304 303 304 303 303 303 303 303 303 302 302 301 301 301 301 300 300 299 299 298 298 297 297 296 295 295 294 293 293 292 291 290 289 288 287 286 285 284 282 281 280 278 277 276 275 273 272 271 270 268 267 266 264 263 262 260 259 258 257 255 254 253
300 301 301 302 303 303 304 304 305 305 305 305 305 305 305 305 305 305 305 305 305 305 305 305 305 305 305 305 304 304 304 303 303 303 302 302 302 302 301 301 301 300 300 299 299 298 298 297 297 296 295 295 294 293 292 291 290 289 288 287 286 284 283 282 280 279 277 276 274 273 272 270 269 268 267 265 264 263 261 260 259 258 256 255 254 252
301 302 303 303 304 304 305 305 306 306 306 306 306 306 306 306 306 306 306 306 306 306 306 306 306 306 305 305 305 304 304 304 303 303 303 303 303 302 302 302 302 301 301 301 300 300 299 299 298 297 297 296 295 295 294 293 292 291 289 288 287 285 284 283 281 279 278 276 275 273 271 270 268 267 266 264 263 262 261 259 258 257 256 254 253 252
303 303 304 304 305 305 306 306 307 307 307 307 307 307 307 307 307 307 307 307 307 307 307 307 307 306 306 305 305 305 304 304 304 304 304 304 304 303 303 303 303 302 302 302 301 301 300 300 299 299 298 298 297 296 295 294 293 292 291 290 288 287 285 284 282 280 278 277 275 273 271 270 268 266 265 263 262 261 260 258 257 256 255 254 252 251
304 304 305 305 306 306 307 307 308 308 308 308 308 308 309 309 309 308 308 308 308 308 308 307 307 306 306 305 305 305 305 304 304 304 304 305 304 304 304 304 303 303 303 303 302 302 302 301 301 300 300 299 298 298 297 296 295 293 292 291 289 288 286 284 283 281 279 277 276 274 272 270 268 266 265 263 261 260 259 257 256 255 254 253 251 250
305 306 306 307 307 308 308 308 309 309 310 310 310 310 310 310 310 310 309 309 309 308 308 308 307 307 306 306 305 305 305 305 305 305 305 305 305 305 305 305 304 304 304 304 304 303 303 302 302 301 301 300 299 299 298 297 296 294 293 292 290 288 287 285 283 282 280 278 276 274 272 271 269 267 265 263 261 260 258 257 255 254 253 251 250 249
306 307 307 308 308 309 309 310 310 311 311 311 311 311 311 311 310 310 310 310 309 309 308 308 307 307 306 306 306 306 306 306 306 306 306 306 306 306 306 306 306 306 305 305 305 304 304 303 303 302 302 301 300 300 299 298 297 295 294 292 291 289 288 286 284 282 281 279 277 275 273 271 270 268 266 264 262 260 258 256 255 253 252 251 249 248
307 308 309 309 310 310 311 311 312 312 313 313 312 312 312 311 311 311 310 310 310 309 309 308 308 307 307 307 306 306 306 307 307 307 307 307 307 307 307 307 307 307 306 306 306 305 305 304 304 303 303 302 302 301 300 299 298 297 295 293 292 290 288 287 285 283 282 280 278 276 274 273 271 269 267 265 263 261 259 257 255 253 252 250 249 247
309 310 310 311 311 312 312 313 313 313 313 313 313 313 312 312 312 311 310 310 310 310 309 309 308 308 307 307 307 307 307 307 308 308 308 308 308 308 308 308 308 308 307 307 307 306 306 305 305 305 304 304 303 302 302 301 299 298 296 295 293 291 290 288 286 284 283 281 279 277 275 273 272 270 268 266 264 262 260 258 256 254 252 250 248 247
310 311 312 312 313 313 313 314 314 314 314 313 313 312 312 312 312 312 311 311 310 310 310 309 309 308 308 308 308 308 308 308 309 309 310 310 310 309 309 309 309 309 309 308 308 307 307 307 307 307 306 306 305 304 303 302 301 300 298 297 295 293 291 289 288 286 284 282 280 278 276 275 273 271 270 268 266 264 262 259 257 255 253 250 248 247
312 312 313 313 314 314 314 315 314 314 314 314 313 313 313 313 312 312 312 311 311 311 310 310 309 309 309 308 308 309 309 310 310 311 311 311 311 311 311 310 310 310 310 309 309 309 309 309 309 309 308 308 307 306 306 304 303 302 300 299 297 295 293 291 289 287 285 283 281 280 278 277 276 274 273 271 268 266 264 261 258 256 253 251 249 246
313 314 314 314 315 315 315 315 315 315 315 314 314 314 314 313 313 312 312 312 311 311 311 311 310 310 310 309 309 310 310 311 311 312 312 312 312 312 312 312 311 311 311 311 311 311 311 311 311 311 311 310 310 309 308 307 306 304 303 301 299 297 295 293 291 289 287 285 284 283 282 281 280 278 276 274 272 269 266 263 260 257 254 251 249 246
314 314 315 315 316 316 316 316 315 315 315 315 315 314 314 313 313 313 312 312 312 312 311 311 311 311 311 310 310 311 312 312 313 313 314 314 313 313 313 313 313 313 313 313 313 313 313 314 314 314 313 313 312 311 310 309 308 306 305 303 301 299 296 294 292 291 289 288 288 287 286 285 283 282 280 278 275 272 270 267 263 260 256 253 249 246
315 315 316 316 316 316 316 316 316 316 316 315 315 314 314 313 313 313 313 313 313 312 312 312 312 311 311 312 312 312 313 313 314 314 315 315 314 314 314 314 314 314 315 315 315 316 316 316 316 316 316 315 314 314 313 312 310 309 307 304 302 300 298 296 294 293 292 291 291 290 289 288 286 284 282 280 278 275 273 270 266 263 259 255 251 247
316 316 316 317 317 316 316 316 316 316 316 316 315 315 314 314 314 314 314 314 313 313 313 313 313 313 313 313 313 313 314 315 315 316 316 316 316 315 315 316 316 316 317 317 317 318 318 318 318 318 318 317 317 316 315 314 312 310 308 305 303 301 299 297 296 295 294 293 292 291 290 289 288 286 284 282 280 278 275 272 269 265 261 257 253 248
316 316 317 317 317 317 317 316 316 316 316 316 315 315 315 315 315 315 315 315 314 314 314 314 314 314 314 314 314 314 315 316 316 317 317 317 317 317 317 317 318 318 319 319 320 320 320 320 320 320 320 319 319 318 317 315 313 311 309 306 304 302 300 298 297 296 295 294 293 292 291 290 289 287 286 284 283 280 278 275 272 268 264 260 255 250
317 317 317 317 317 317 317 317 317 317 316 316 316 316 316 316 316 316 316 316 315 315 315 315 315 315 315 316 316 316 316 317 317 318 318 319 319 319 319 319 320 320 321 321 321 322 322 322 322 322 322 321 320 320 318 317 315 312 309 307 304 302 300 298 297 296 295 294 293 292 291 290 290 288 287 286 285 283 281 279 276 272 268 263 258 253
317 317 318 318 318 317 317 317 317 317 317 317 317 317 317 317 317 317 316 316 316 316 316 316 316 316 317 317 317 317 317 318 319 319 320 320 320 320 320 321 322 322 323 323 323 323 324 324 324 324 324 323 322 321 320 319 316 314 311 308 305 303 301 299 298 297 296 295 294 293 292 292 291 290 289 288 286 285 284 282 279 276 272 266 261 255
317 318 318 318 318 318 318 318 318 318 318 318 318 318 318 318 318 317 317 317 317 316 316 317 317 317 318 318 318 318 319 319 320 321 321 322 322 322 322 323 323 324 324 324 324 325 325 325 325 325 325 325 324 323 322 321 319 316 313 310 307 304 302 300 299 298 297 296 296 295 294 293 292 291 290 289 288 287 286 284 282 280 275 270 264 258
318 318 318 319 319 318 318 318 318 318 318 318 319 319 319 318 318 318 318 317 317 317 317 317 318 318 319 319 319 319 320 321 321 322 323 324 324 324 324 324 325 325 325 326 326 326 326 326 326 327 327 326 326 325 324 322 321 319 316 313 310 307 304 302 300 299 298 298 297 296 296 295 294 293 292 291 290 289 288 287 285 283 279 274 268 261
319 319 319 319 319 319 319 319 319 319 319 319 319 319 319 319 319 318 318 317 317 317 318 318 319 319 320 320 321 321 321 322 323 324 325 325 325 325 325 326 326 326 327 327 327 327 327 327 327 327 328 327 327 326 325 324 322 321 319 316 313 310 307 304 302 300 299 298 298 297 297 296 296 295 294 293 292 291 290 289 288 286 282 277 270 263
319 319 320 319 319 319 319 319 320 320 320 320 320 320 320 319 319 318 318 318 318 318 319 319 320 320 321 321 322 322 323 323 324 325 326 326 327 327 327 327 327 327 327 327 327 328 328 328 328 328 328 328 328 327 326 325 324 322 321 319 316 313 309 306 304 301 300 299 298 298 297 297 297 296 296 295 294 293 293 292 291 289 285 280 273 265
320 320 320 320 320 320 320 320 320 320 321 321 321 321 320 320 319 319 319 319 319 319 320 320 321 321 322 322 323 323 324 325 326 327 327 328 327 328 328 328 328 328 328 328 328 328 328 328 328 329 329 329 329 328 327 326 325 324 322 320 318 315 312 309 306 303 301 300 298 298 297 297 297 297 297 297 296 295 295 295 293 291 288 283 276 268
320 320 320 320 320 320 321 321 321 321 321 321 321 321 320 320 320 319 319 319 320 320 320 321 321 322 322 323 324 325 325 326 327 328 328 328 328 328 328 328 328 329 329 329 329 329 329 329 329 329 330 330 330 330 329 328 326 325 323 321 319 317 314 312 309 307 304 302 300 299 298 298 298 298 298 298 298 297 297 297 296 293 290 285 278 270
320 321 321 321 321 321 321 321 322 322 322 322 321 321 321 320 320 320 320 320 320 321 321 322 322 323 323 324 325 326 326 327 328 329 329 329 329 329 329 329 329 329 329 329 329 330 330 330 330 330 331 331 331 331 331 329 328 326 324 322 320 318 316 314 312 310 308 305 303 301 300 299 299 299 299 299 299 299 299 298 297 295 291 286 280 272
321 321 321 321 321 322 322 322 322 322 322 322 321 321 321 320 320 320 320 321 321 321 322 322 323 324 325 325 326 327 327 328 329 330 330 330 330 330 330 330 330 329 329 329 330 330 330 331 331 331 331 332 332 332 332 331 330 328 325 323 321 319 317 316 315 313 311 309 306 304 302 301 301 301 301 301 301 301 301 300 298 296 292 287 281 273
321 321 321 322 322 322 322 323 323 322 322 322 321 321 321 321 321 321 321 321 322 322 323 323 324 325 326 326 327 328 328 329 330 331 331 331 331 331 331 331 330 330 330 330 330 330 331 331 332 332 332 332 333 333 333 333 331 329 327 324 321 319 318 317 316 315 313 311 309 307 305 304 303 302 302 302 303 303 302 301 299 296 293 288 281 274
321 322 322 322 322 323 323 323 323 323 322 322 322 321 321 321 321 321 322 322 323 323 324 324 325 326 327 328 328 329 330 330 331 332 332 332 332 332 332 331 331 330 330 330 331 331 332 332 333 333 333 333 334 334 334 333 332 330 328 325 321 319 317 316 315 314 314 313 311 309 307 305 305 304 304 304 304 304 303 302 299 296 293 288 281 274
322 322 322 323 323 323 323 323 323 323 322 322 322 322 322 322 322 322 323 323 324 324 324 325 326 327 327 329 330 330 331 331 332 333 333 333 333 333 332 332 331 331 331 331 331 332 333 333 334 334 334 335 335 335 334 334 333 331 329 325 322 318 316 315 314 313 313 313 312 310 308 307 306 305 305 305 305 305 304 302 299 296 292 287 281 274
322 322 323 323 323 323 323 323 323 323 322 322 322 322 322 322 323 323 324 324 324 325 325 326 327 328 328 329 330 331 332 333 333 334 334 334 334 333 333 332 332 332 332 332 333 333 334 335 335 335 336 336 336 335 335 334 334 332 330 327 323 319 315 313 312 312 312 313 312 311 310 308 307 307 307 307 306 306 304 302 299 295 291 287 281 273
322 322 323 323 323 323 323 323 323 322 322 322 322 322 323 323 324 324 324 325 325 326 326 327 328 328 329 330 332 332 333 334 334 335 335 335 334 334 334 333 333 333 333 333 334 335 335 336 336 337 337 337 337 337 336 335 334 333 332 328 324 320 316 313 311 311 312 312 312 312 311 310 309 308 308 308 308 306 304 302 298 294 290 286 280 273
322 322 323 323 323 323 323 323 323 322 322 323 323 323 324 324 325 325 325 326 326 327 327 328 329 329 330 332 333 334 334 335 335 336 336 335 335 335 335 334 334 334 334 335 336 337 337 338 338 339 339 339 339 338 337 336 335 334 333 331 327 322 317 314 312 311 311 312 313 313 313 312 311 310 310 310 309 307 305 301 297 293 289 285 279 271
322 322 322 323 322 322 322 322 322 323 323 323 324 324 325 325 326 326 326 326 327 328 328 329 330 331 332 333 334 335 335 336 336 336 336 336 336 336 336 335 335 336 336 337 338 339 339 340 340 340 341 341 340 340 339 338 337 336 335 333 330 325 320 315 313 312 312 313 314 314 314 314 313 312 312 311 310 308 304 300 296 292 288 283 275 261
322 322 322 322 322 322 322 322 323 323 323 324 325 325 326 326 326 327 327 327 328 329 329 330 331 332 333 334 335 336 337 337 337 338 337 337 337 337 337 337 337 338 339 340 340 341 341 342 342 342 342 342 342 342 341 340 339 337 336 335 332 328 322 317 314 313 313 313 314 315 316 315 315 315 314 313 311 308 304 300 295 290 285 277 260 228
322 322 322 322 322 322 322 323 323 324 324 325 325 326 326 327 327 327 328 328 329 330 331 331 332 333 334 335 336 337 338 338 339 339 339 338 338 338 339 339 340 341 342 342 343 343 343 344 344 343 343 344 344 344 343 342 341 339 338 336 334 331 325 320 316 314 313 314 315 316 317 317 317 316 316 314 312 308 304 299 294 288 279 259 219 189
322 322 322 322 322 322 323 323 324 324 325 325 326 327 327 327 327 328 328 329 330 331 331 332 333 334 335 335 336 337 338 339 340 340 340 340 340 340 340 341 342 343 344 345 345 345 345 345 344 344 344 344 345 346 346 345 343 341 340 338 336 333 329 323 318 315 314 314 315 317 318 319 319 318 317 315 312 308 304 298 292 282 262 220 188 176
322 322 322 322 322 323 323 324 324 325 326 326 327 327 327 328 328 328 329 330 330 331 332 333 334 335 336 336 337 338 339 340 341 341 341 341 341 341 342 343 344 346 347 347 347 347 346 345 345 344 344 345 346 347 347 347 345 344 342 340 338 336 332 326 320 316 314 314 316 317 319 320 320 320 318 316 312 308 303 296 287 269 231 193 178 175
322 322 322 322 323 323 324 324 325 326 326 327 327 328 328 328 329 329 330 330 331 332 333 334 335 336 337 338 338 339 340 341 342 342 343 343 343 343 343 344 346 347 348 349 348 347 346 345 344 344 344 345 346 347 348 348 347 345 343 341 339 337 334 329 323 318 315 315 316 318 320 322 322 321 319 316 312 307 300 293 279 246 203 182 176 176
322 322 322 322 323 323 324 325 326 326 327 328 328 328 329 329 329 330 330 331 332 332 333 334 335 337 338 339 340 341 341 342 343 344 344 344 344 344 344 346 347 348 349 349 348 347 346 345 344 344 344 345 346 347 348 349 348 347 345 343 340 338 335 331 325 320 317 316 317 320 322 323 324 322 320 316 311 304 297 288 263 220 189 179 176 177
322 322 322 323 323 324 324 325 326 327 328 328 329 329 329 330 330 330 331 331 332 333 334 335 336 337 339 340 341 342 343 343 344 345 345 345 345 345 346 346 347 348 349 348 347 346 345 344 343 343 343 344 345 346 348 348 349 348 347 344 341 339 336 332 327 321 318 318 319 322 324 325 325 323 320 315 309 302 294 278 241 201 183 177 176 178
322 322 323 323 324 324 325 326 327 328 329 329 329 329 329 330 330 331 331 332 333 333 334 335 337 338 339 341 342 343 344 345 345 346 347 347 347 347 347 347 348 348 348 347 346 344 343 343 342 342 343 344 345 346 347 348 349 349 347 345 343 339 336 332 328 325 322 322 323 325 327 327 327 324 321 315 308 301 290 265 221 192 181 178 177 178
322 322 323 323 324 325 326 327 328 329 329 329 329 329 330 330 331 331 332 333 333 334 335 336 337 338 340 342 343 344 345 346 346 347 348 348 348 348 347 347 348 348 347 346 344 343 342 342 342 342 342 344 345 346 347 348 349 349 348 347 344 341 337 334 331 328 326 326 327 328 329 329 328 326 321 315 308 299 285 251 210 191 183 180 180 180
322 322 323 324 325 326 327 328 329 329 329 329 329 329 330 330 331 332 332 333 334 334 335 336 337 339 341 342 344 345 346 347 348 348 349 349 349 348 348 348 347 347 346 345 344 343 342 342 342 341 342 343 344 346 347 348 348 349 348 347 345 343 339 336 332 330 329 329 330 331 332 331 330 326 322 315 306 296 277 236 204 190 185 183 182 181
322 323 323 324 325 326 327 328 329 329 329 329 329 330 330 331 331 332 333 333 334 334 335 336 338 339 341 343 344 346 347 348 349 349 349 350 349 349 348 348 347 346 345 344 343 343 342 342 342 341 341 342 344 346 347 348 348 349 348 348 346 344 341 337 334 332 331 332 332 333 334 333 331 327 321 313 304 291 268 225 200 190 185 184 183 181
322 323 324 325 326 327 328 328 329 329 329 329 329 330 330 331 332 332 333 334 334 335 336 337 338 339 341 343 344 346 347 348 349 350 350 350 350 349 349 348 347 346 344 344 343 343 343 342 342 341 341 342 343 345 347 348 348 349 349 348 347 346 343 340 337 335 334 334 334 335 335 334 332 328 320 311 300 286 259 220 198 189 185 184 182 181
322 323 324 325 326 327 328 329 329 329 329 329 329 330 330 331 332 333 333 334 334 335 336 337 338 340 341 343 344 346 347 349 350 350 351 351 351 350 349 348 347 346 344 344 343 343 343 342 342 341 341 341 342 344 346 348 349 349 349 349 348 347 345 342 339 337 336 335 336 336 337 336 333 328 320 308 295 280 251 214 197 188 184 182 181 180
323 323 324 325 327 328 328 328 328 328 329 329 329 330 330 331 332 333 334 334 335 335 336 337 338 340 341 343 344 346 347 349 350 350 351 351 351 350 350 349 347 346 345 344 344 343 343 343 342 342 341 341 342 344 346 347 349 349 349 349 349 347 346 343 341 339 338 337 337 338 338 337 334 330 321 308 292 271 239 208 194 186 182 180 179 179
323 324 325 326 327 327 328 328 328 328 328 329 329 330 331 332 332 333 334 335 335 336 336 337 338 340 341 343 344 346 347 348 349 350 351 351 351 351 350 349 348 347 346 345 344 344 343 343 343 343 342 342 342 343 345 347 348 349 350 349 349 348 346 344 342 340 339 339 339 339 339 338 335 330 321 308 291 264 227 201 190 184 180 178 177 178
Height
5679 5677 5675 5674 5672 5670 5667 5666 5665 5662 5660 5657 5655 5653 5651 5648 5646 5643 5641 5638 5636 5633 5630 5627 5624 5621 5618 5615 5612 5610 5607 5604 5601 5598 5596 5593 5590 5587 5585 5582 5580 5577 5575 5572 5569 5567 5565 5562 5560 5558 5556 5555 5553 5551 5550 5548 5547 5546 5544 5543 5541 5540 5539 5538 5537 5536 5535 5534 5533 5533 5533 5533 5533 5533 5534 5534 5535 5536 5536 5537 5538 5540 5541 5543 5545 5547
5676 5674 5672 5670 5668 5666 5664 5662 5661 5659 5656 5653 5651 5648 5646 5643 5641 5638 5636 5633 5630 5627 5625 5622 5619 5616 5613 5610 5607 5604 5601 5598 5595 5592 5589 5587 5584 5582 5579 5576 5574 5571 5569 5566 5563 5561 5558 5556 5553 5551 5549 5547 5545 5543 5541 5540 5538 5536 5535 5533 5532 5531 5529 5528 5526 5526 5525 5524 5523 5523 5523 5523 5523 5523 5524 5524 5525 5526 5527 5528 5529 5531 5532 5534 5535 5537
5673 5671 5669 5667 5665 5662 5660 5658 5656 5655 5652 5650 5647 5644 5642 5639 5636 5633 5631 5627 5625 5622 5619 5616 5614 5611 5607 5604 5601 5598 5595 5592 5589 5586 5584 5581 5579 5576 5574 5571 5568 5566 5563 5560 5557 5554 5551 5548 5546 5543 5541 5539 5536 5534 5532 5531 5529 5527 5525 5524 5522 5520 5519 5517 5516 5515 5514 5513 5512 5512 5512 5512 5512 5512 5513 5514 5515 5516 5516 5517 5519 5520 5522 5524 5526 5528
5670 5667 5665 5663 5661 5659 5657 5655 5652 5650 5648 5646 5643 5640 5637 5635 5632 5629 5626 5623 5620 5617 5614 5611 5608 5605 5602 5599 5596 5592 5590 5586 5584 5581 5578 5576 5573 5571 5568 5566 5563 5560 5556 5553 5550 5546 5543 5540 5537 5535 5532 5530 5527 5525 5523 5521 5519 5517 5515 5513 5511 5509 5508 5506 5505 5503 5502 5501 5501 5501 5501 5501 5501 5501 5502 5503 5503 5504 5506 5507 5508 5510 5511 5514 5516 5518
5666 5664 5661 5660 5657 5655 5653 5651 5649 5646 5644 5641 5639 5636 5633 5631 5628 5625 5621 5619 5616 5612 5609 5606 5603 5600 5596 5593 5590 5587 5585 5582 5579 5576 5573 5571 5568 5565 5562 5560 5556 5553 5550 5546 5542 5539 5535 5531 5528 5525 5522 5520 5517 5515 5512 5510 5508 5506 5504 5502 5500 5498 5496 5494 5492 5491 5490 5489 5489 5488 5488 5488 5489 5489 5490 5491 5491 5492 5494 5495 5497 5499 5501 5503 5505 5507
5662 5660 5658 5656 5654 5651 5649 5647 5645 5642 5640 5637 5634 5632 5629 5626 5623 5620 5617 5614 5611 5607 5604 5601 5598 5595 5591 5588 5585 5582 5580 5577 5574 5571 5569 5566 5563 5560 5556 5553 5550 5546 5543 5539 5535 5531 5527 5523 5519 5516 5513 5510 5507 5504 5501 5499 5496 5494 5492 5490 5487 5485 5483 5481 5479 5478 5476 5476 5475 5475 5475 5475 5476 5476 5476 5477 5478 5480 5481 5483 5485 5487 5489 5491 5494 5496
5658 5656 5655 5652 5650 5647 5645 5643 5641 5638 5636 5633 5630 5627 5625 5622 5619 5616 5612 5609 5606 5603 5599 5596 5593 5590 5586 5583 5580 5577 5575 5572 5569 5566 5563 5561 5557 5554 5551 5547 5543 5539 5536 5532 5528 5523 5519 5515 5511 5507 5503 5499 5496 5493 5490 5487 5484 5481 5479 5476 5474 5471 5468 5466 5464 5463 5462 5461 5461 5461 5461 5461 5461 5462 5462 5463 5465 5466 5468 5470 5472 5474 5476 5479 5482 5485
5655 5653 5651 5649 5646 5644 5641 5639 5637 5634 5632 5629 5626 5623 5620 5617 5614 5611 5607 5604 5601 5598 5595 5591 5588 5585 5582 5579 5576 5572 5570 5567 5565 5561 5558 5555 5552 5548 5545 5541 5537 5533 5529 5525 5520 5516 5511 5507 5502 5498 5494 5490 5486 5482 5478 5475 5471 5468 5465 5462 5459 5456 5453 5451 5449 5447 5446 5445 5445 5445 5445 5445 5446 5446 5447 5448 5450 5451 5453 5456 5458 5461 5463 5466 5469 5473
5651 5649 5647 5645 5643 5641 5637 5635 5632 5630 5627 5624 5621 5619 5616 5612 5609 5606 5603 5600 5596 5593 5591 5587 5584 5580 5576 5574 5571 5568 5565 5562 5560 5557 5554 5550 5546 5542 5538 5534 5530 5526 5522 5517 5513 5508 5503 5498 5494 5489 5484 5480 5475 5471 5466 5462 5458 5455 5451 5447 5444 5441 5438 5435 5433 5431 5430 5429 5428 5428 5429 5429 5429 5430 5431 5432 5434 5436 5438 5441 5443 5446 5449 5452 5456 5460
5648 5646 5643 5641 5639 5637 5634 5631 5627 5625 5623 5619 5616 5614 5611 5608 5605 5601 5598 5595 5592 5589 5586 5583 5580 5576 5571 5568 5566 5563 5560 5557 5554 5551 5548 5544 5540 5536 5531 5527 5524 5519 5515 5510 5505 5500 5495 5490 5485 5480 5475 5470 5465 5459 5454 5450 5445 5441 5436 5433 5429 5426 5423 5420 5417 5416 5414 5413 5413 5412 5412 5413 5413 5414 5415 5416 5418 5420 5423 5425 5428 5431 5435 5438 5442 5446
5644 5642 5640 5637 5634 5632 5630 5626 5623 5620 5618 5615 5611 5608 5606 5603 5601 5597 5594 5591 5587 5584 5581 5578 5575 5571 5567 5563 5560 5557 5556 5553 5549 5546 5542 5538 5534 5530 5525 5521 5517 5512 5508 5503 5497 5492 5487 5482 5476 5471 5465 5460 5454 5448 5442 5437 5432 5427 5423 5419 5415 5411 5408 5406 5403 5401 5400 5399 5398 5397 5397 5397 5398 5398 5400 5401 5403 5405 5407 5409 5412 5416 5420 5423 5428 5432
5640 5638 5635 5633 5630 5627 5625 5622 5619 5616 5613 5610 5607 5603 5600 5598 5596 5593 5590 5586 5583 5580 5577 5573 5569 5566 5562 5559 5555 5552 5550 5547 5544 5541 5537 5532 5527 5523 5518 5514 5510 5506 5501 5495 5490 5484 5479 5474 5467 5461 5455 5449 5443 5437 5431 5425 5420 5415 5410 5406 5402 5398 5396 5393 5390 5388 5387 5386 5385 5384 5384 5384 5384 5385 5385 5386 5388 5390 5392 5394 5397 5400 5404 5408 5413 5418
5636 5634 5631 5628 5626 5623 5620 5617 5615 5611 5609 5606 5603 5599 5596 5593 5590 5587 5585 5581 5578 5576 5572 5569 5564 5560 5556 5553 5550 5547 5545 5542 5539 5535 5531 5526 5521 5516 5512 5507 5502 5498 5493 5488 5482 5476 5470 5465 5459 5452 5445 5439 5432 5426 5420 5414 5408 5403 5398 5394 5391 5387 5384 5381 5379 5377 5376 5375 5374 5373 5372 5372 5372 5373 5374 5374 5375 5376 5378 5380 5382 5386 5389 5393 5398 5402
5632 5629 5627 5624 5621 5618 5616 5613 5610 5607 5604 5601 5598 5595 5591 5588 5585 5582 5580 5576 5573 5571 5568 5564 5560 5556 5551 5547 5544 5541 5539 5537 5534 5530 5526 5520 5515 5510 5505 5500 5495 5491 5486 5481 5474 5467 5461 5455 5449 5442 5435 5428 5421 5415 5409 5403 5398 5393 5388 5384 5381 5377 5375 5372 5370 5368 5366 5366 5365 5364 5363 5363 5363 5363 5363 5364 5364 5365 5366 5367 5369 5371 5375 5378 5382 5387
5627 5625 5622 5619 5616 5614 5611 5609 5606 5603 5600 5596 5594 5590 5587 5583 5581 5578 5575 5571 5568 5566 5563 5559 5555 5551 5546 5542 5539 5536 5533 5530 5528 5525 5521 5515 5508 5502 5498 5494 5488 5483 5478 5472 5466 5459 5452 5446 5439 5432 5425 5418 5411 5405 5399 5394 5389 5384 5380 5376 5372 5369 5366 5364 5362 5361 5359 5358 5357 5356 5356 5356 5356 5355 5355 5355 5354 5354 5355 5356 5357 5359 5361 5364 5368 5372
5623 5621 5618 5615 5612 5610 5607 5604 5601 5598 5595 5592 5589 5586 5583 5579 5576 5573 5571 5567 5564 5561 5558 5555 5551 5546 5541 5537 5533 5531 5529 5525 5521 5519 5516 5510 5502 5496 5491 5487 5482 5476 5470 5464 5457 5451 5443 5436 5429 5422 5415 5408 5402 5396 5390 5385 5381 5376 5372 5369 5366 5363 5360 5358 5356 5355 5353 5352 5351 5351 5350 5349 5348 5348 5347 5347 5346 5346 5346 5346 5346 5347 5349 5351 5354 5358
5619 5617 5614 5611 5608 5605 5602 5600 5597 5594 5591 5588 5584 5581 5578 5575 5571 5568 5565 5562 5559 5556 5552 5549 5546 5543 5538 5532 5527 5524 5523 5520 5516 5513 5510 5505 5498 5490 5485 5480 5475 5469 5462 5456 5449 5442 5435 5428 5421 5413 5406 5399 5393 5387 5382 5377 5373 5369 5366 5363 5360 5357 5355 5353 5351 5349 5348 5347 5346 5345 5344 5343 5342 5341 5341 5340 5339 5338 5338 5337 5337 5337 5338 5339 5341 5345
5615 5613 5610 5607 5604 5601 5598 5596 5593 5590 5587 5584 5581 5577 5573 5570 5567 5564 5561 5557 5554 5550 5546 5543 5540 5537 5534 5529 5523 5518 5516 5514 5511 5507 5504 5499 5492 5485 5478 5473 5468 5462 5456 5448 5441 5434 5427 5420 5413 5406 5399 5392 5386 5380 5376 5371 5367 5363 5360 5357 5355 5352 5350 5348 5346 5345 5343 5342 5341 5340 5338 5337 5336 5335 5335 5334 5333 5332 5331 5330 5329 5329 5329 5329 5331 5333
5611 5609 5606 5604 5601 5597 5594 5591 5589 5586 5583 5580 5576 5573 5569 5566 5562 5559 5556 5552 5549 5545 5542 5538 5534 5530 5527 5523 5518 5513 5510 5508 5505 5501 5498 5493 5486 5479 5472 5466 5461 5455 5448 5441 5434 5426 5420 5412 5406 5399 5392 5386 5380 5375 5370 5366 5362 5359 5356 5353 5350 5348 5346 5344 5342 5340 5339 5337 5336 5335 5333 5332 5331 5330 5329 5328 5327 5326 5325 5323 5322 5321 5321 5321 5321 5323
5607 5605 5602 5600 5597 5593 5590 5587 5584 5581 5578 5575 5572 5569 5565 5561 5558 5554 5551 5547 5544 5540 5537 5533 5529 5525 5521 5518 5513 5508 5504 5501 5498 5495 5491 5487 5481 5474 5466 5460 5455 5448 5441 5434 5426 5420 5413 5406 5399 5393 5386 5381 5375 5370 5366 5361 5358 5355 5351 5349 5346 5344 5341 5340 5338 5336 5334 5332 5331 5330 5328 5327 5326 5325 5323 5322 5321 5320 5318 5317 5316 5314 5313 5313 5314 5315
5603 5601 5598 5596 5593 5590 5586 5583 5580 5577 5574 5571 5567 5564 5561 5557 5553 5549 5546 5543 5539 5535 5532 5528 5524 5520 5516 5512 5507 5502 5498 5495 5492 5488 5484 5480 5474 5467 5461 5454 5448 5442 5435 5427 5420 5413 5406 5400 5394 5387 5381 5376 5370 5366 5361 5357 5354 5351 5348 5345 5342 5340 5337 5335 5333 5331 5330 5328 5326 5325 5323 5322 5321 5319 5318 5317 5316 5314 5312 5311 5309 5308 5307 5306 5306 5307
5600 5597 5594 5591 5588 5586 5582 5579 5576 5572 5569 5566 5563 5559 5556 5552 5549 5545 5541 5538 5535 5531 5527 5524 5520 5516 5511 5507 5502 5497 5492 5489 5486 5482 5478 5473 5467 5460 5453 5447 5441 5435 5429 5421 5414 5407 5401 5395 5389 5383 5377 5371 5366 5361 5357 5354 5350 5347 5344 5341 5339 5336 5333 5331 5329 5327 5325 5323 5321 5320 5318 5317 5316 5314 5313 5311 5310 5309 5307 5305 5304 5302 5301 5300 5300 5300
5596 5593 5590 5587 5584 5581 5578 5575 5571 5568 5565 5561 5558 5555 5551 5548 5544 5541 5537 5534 5531 5527 5524 5520 5515 5511 5506 5502 5497 5492 5487 5483 5479 5475 5471 5466 5461 5454 5447 5441 5435 5428 5422 5416 5409 5402 5396 5390 5384 5379 5373 5368 5363 5358 5354 5350 5346 5343 5341 5338 5335 5332 5330 5327 5325 5322 5321 5319 5317 5315 5314 5312 5311 5309 5308 5306 5305 5303 5301 5300 5298 5296 5295 5294 5293 5293
5592 5589 5586 5583 5580 5576 5573 5570 5567 5564 5560 5557 5553 5550 5546 5543 5539 5536 5533 5529 5526 5523 5519 5515 5511 5506 5501 5497 5492 5486 5481 5477 5473 5469 5464 5459 5453 5447 5441 5435 5429 5422 5416 5410 5404 5398 5392 5386 5381 5376 5371 5365 5360 5355 5351 5346 5343 5340 5337 5334 5331 5328 5325 5323 5321 5318 5316 5314 5312 5311 5309 5307 5306 5304 5303 5301 5300 5298 5296 5295 5292 5291 5289 5288 5287 5287
5588 5585 5582 5579 5576 5572 5569 5566 5563 5559 5556 5552 5549 5545 5541 5538 5535 5531 5528 5525 5521 5518 5514 5511 5507 5503 5498 5494 5488 5482 5476 5472 5468 5464 5459 5452 5446 5441 5435 5429 5423 5417 5411 5406 5400 5394 5388 5383 5378 5373 5368 5362 5357 5352 5348 5343 5340 5336 5333 5330 5327 5324 5321 5318 5316 5314 5312 5310 5308 5306 5304 5303 5301 5300 5298 5296 5295 5293 5291 5289 5287 5286 5284 5282 5281 5281
5584 5581 5578 5575 5571 5568 5565 5562 5558 5555 5551 5548 5545 5541 5538 5534 5531 5527 5523 5520 5517 5514 5510 5506 5502 5499 5495 5490 5485 5479 5472 5467 5463 5459 5454 5448 5441 5435 5429 5423 5417 5412 5406 5401 5396 5391 5385 5379 5374 5370 5365 5360 5355 5350 5345 5340 5336 5333 5330 5326 5323 5320 5317 5314 5312 5310 5307 5305 5303 5301 5300 5298 5296 5295 5293 5292 5290 5288 5286 5285 5282 5280 5278 5277 5276 5276
5580 5577 5574 5571 5567 5564 5561 5557 5554 5550 5547 5543 5540 5537 5534 5530 5526 5523 5520 5516 5513 5510 5506 5502 5499 5494 5490 5486 5481 5475 5469 5463 5458 5454 5449 5443 5437 5430 5424 5417 5412 5406 5402 5397 5392 5387 5382 5376 5371 5367 5362 5358 5353 5347 5342 5338 5333 5330 5326 5323 5319 5316 5313 5310 5307 5305 5303 5301 5299 5297 5295 5293 5292 5290 5289 5287 5286 5284 5282 5280 5278 5275 5273 5272 5271 5271
5576 5572 5570 5566 5563 5560 5556 5553 5549 5546 5542 5539 5536 5532 5529 5526 5523 5519 5516 5512 5509 5506 5501 5498 5495 5491 5486 5482 5477 5471 5466 5460 5455 5450 5444 5438 5432 5426 5420 5413 5407 5401 5397 5392 5389 5385 5380 5374 5369 5364 5360 5355 5351 5345 5340 5335 5331 5326 5323 5319 5316 5312 5309 5306 5303 5301 5299 5296 5294 5292 5291 5289 5287 5286 5284 5283 5281 5280 5277 5275 5273 5271 5269 5267 5266 5266
5571 5568 5565 5562 5559 5556 5552 5548 5545 5541 5538 5535 5531 5528 5525 5522 5519 5516 5512 5509 5505 5501 5497 5493 5490 5486 5482 5478 5474 5468 5462 5457 5451 5446 5440 5434 5427 5421 5415 5408 5402 5397 5392 5387 5384 5381 5379 5373 5367 5361 5357 5352 5348 5343 5338 5333 5328 5324 5320 5316 5312 5309 5305 5302 5299 5296 5294 5292 5290 5288 5286 5285 5283 5281 5280 5279 5277 5275 5273 5271 5268 5266 5264 5263 5262 5261
5567 5564 5561 5558 5555 5551 5548 5544 5541 5537 5534 5531 5528 5524 5521 5518 5515 5512 5508 5505 5501 5498 5493 5489 5485 5481 5478 5474 5469 5464 5458 5452 5447 5442 5436 5430 5423 5416 5410 5403 5397 5392 5387 5383 5378 5376 5374 5371 5366 5361 5355 5350 5346 5341 5336 5331 5326 5321 5317 5313 5309 5306 5302 5299 5296 5293 5291 5289 5286 5284 5282 5281 5279 5277 5276 5275 5273 5271 5269 5267 5264 5262 5260 5259 5258 5257
5562 5559 5556 5553 5550 5547 5543 5540 5537 5534 5530 5527 5524 5521 5517 5514 5511 5508 5504 5501 5497 5494 5490 5486 5481 5477 5473 5469 5465 5460 5454 5448 5442 5437 5432 5426 5419 5413 5407 5401 5394 5388 5383 5379 5375 5371 5368 5366 5364 5360 5354 5348 5343 5339 5334 5329 5324 5319 5315 5311 5307 5303 5300 5296 5293 5290 5288 5286 5283 5281 5279 5277 5275 5274 5272 5271 5269 5267 5265 5263 5260 5258 5256 5255 5254 5254
5558 5555 5552 5549 5545 5542 5539 5536 5533 5530 5526 5523 5520 5517 5514 5511 5507 5504 5500 5497 5493 5490 5486 5481 5477 5473 5469 5465 5461 5456 5451 5445 5438 5433 5427 5421 5415 5409 5403 5398 5391 5386 5380 5376 5372 5368 5365 5361 5359 5356 5353 5347 5342 5336 5331 5327 5322 5317 5312 5308 5305 5301 5297 5294 5290 5287 5285 5283 5281 5279 5276 5274 5272 5271 5269 5267 5266 5264 5261 5259 5256 5254 5253 5252 5251 5251
5554 5551 5548 5545 5541 5538 5535 5532 5529 5526 5523 5520 5517 5514 5510 5507 5504 5500 5496 5493 5489 5486 5482 5478 5473 5469 5464 5460 5456 5451 5446 5441 5435 5429 5423 5417 5411 5406 5400 5394 5388 5383 5378 5373 5369 5365 5361 5358 5355 5351 5349 5345 5341 5335 5330 5325 5320 5315 5311 5306 5302 5299 5295 5291 5288 5285 5282 5280 5278 5276 5274 5272 5270 5268 5266 5264 5262 5260 5258 5256 5253 5251 5250 5249 5249 5249
5551 5547 5544 5541 5538 5535 5532 5529 5526 5523 5520 5517 5514 5511 5507 5504 5500 5496 5493 5489 5485 5481 5478 5474 5470 5465 5461 5456 5451 5446 5441 5436 5430 5424 5419 5413 5408 5402 5396 5391 5386 5381 5376 5371 5367 5362 5358 5355 5351 5347 5344 5341 5338 5333 5328 5322 5317 5313 5309 5304 5300 5296 5292 5289 5285 5282 5280 5278 5276 5273 5271 5269 5267 5265 5263 5261 5259 5257 5255 5252 5250 5249 5247 5246 5246 5247
5547 5544 5541 5538 5535 5532 5529 5526 5523 5520 5517 5514 5511 5507 5504 5500 5497 5493 5489 5485 5481 5477 5473 5469 5465 5461 5457 5452 5447 5442 5437 5431 5426 5420 5415 5410 5404 5399 5393 5388 5383 5378 5373 5369 5365 5361 5356 5352 5348 5345 5340 5336 5334 5331 5326 5321 5315 5310 5306 5302 5297 5293 5289 5286 5282 5279 5276 5275 5272 5270 5268 5266 5264 5262 5260 5258 5256 5254 5252 5250 5248 5246 5245 5245 5245 5246
5544 5541 5538 5535 5532 5529 5526 5523 5520 5517 5514 5511 5507 5504 5501 5497 5494 5490 5486 5482 5478 5474 5469 5465 5461 5456 5452 5448 5443 5439 5434 5428 5422 5417 5411 5406 5401 5396 5391 5385 5380 5376 5371 5366 5362 5358 5355 5351 5346 5343 5338 5334 5330 5326 5322 5318 5313 5308 5303 5299 5295 5291 5287 5283 5279 5276 5273 5271 5269 5267 5265 5263 5261 5260 5257 5256 5253 5251 5249 5247 5246 5245 5244 5244 5244 5245
5541 5538 5535 5532 5529 5526 5523 5520 5517 5514 5511 5507 5504 5501 5497 5494 5491 5487 5483 5479 5475 5471 5466 5461 5456 5451 5446 5442 5438 5434 5430 5425 5419 5413 5408 5402 5397 5392 5387 5382 5377 5373 5369 5364 5359 5355 5351 5347 5344 5340 5336 5332 5328 5323 5319 5314 5310 5306 5301 5297 5292 5288 5284 5280 5277 5273 5271 5268 5266 5264 5262 5261 5259 5257 5255 5253 5251 5249 5247 5245 5244 5243 5242 5243 5243 5244
5538 5535 5532 5529 5526 5523 5520 5517 5514 5511 5508 5505 5501 5498 5495 5491 5487 5484 5480 5476 5472 5467 5463 5458 5453 5448 5443 5438 5434 5430 5425 5421 5416 5410 5404 5399 5394 5389 5384 5379 5374 5370 5366 5362 5357 5353 5349 5345 5340 5336 5332 5329 5325 5321 5316 5311 5306 5302 5298 5294 5291 5286 5282 5278 5274 5271 5268 5266 5263 5261 5260 5258 5256 5254 5252 5250 5248 5246 5245 5243 5242 5242 5241 5242 5242 5243
5535 5532 5529 5526 5524 5521 5517 5514 5511 5508 5505 5502 5499 5496 5492 5489 5485 5481 5478 5474 5470 5466 5461 5456 5452 5447 5441 5436 5431 5426 5422 5417 5412 5407 5401 5396 5391 5386 5381 5377 5372 5368 5364 5359 5355 5351 5346 5342 5338 5333 5329 5325 5321 5317 5313 5308 5303 5298 5294 5291 5287 5284 5281 5276 5272 5269 5266 5263 5261 5259 5257 5256 5254 5252 5250 5248 5246 5245 5243 5242 5241 5241 5241 5241 5242 5243
5532 5529 5526 5524 5521 5518 5515 5512 5509 5505 5502 5499 5496 5492 5490 5486 5482 5479 5475 5471 5467 5464 5460 5455 5450 5446 5441 5436 5430 5425 5420 5414 5410 5405 5399 5394 5388 5383 5379 5375 5371 5366 5362 5357 5353 5349 5344 5339 5335 5330 5326 5322 5318 5314 5310 5305 5300 5295 5290 5286 5283 5281 5278 5274 5270 5267 5264 5261 5259 5257 5255 5254 5252 5250 5248 5246 5244 5243 5242 5241 5240 5240 5240 5241 5242 5243
5529 5526 5523 5521 5517 5515 5511 5509 5506 5503 5500 5496 5493 5490 5486 5483 5480 5476 5472 5468 5465 5461 5457 5453 5448 5443 5438 5433 5428 5423 5418 5413 5407 5402 5397 5392 5387 5382 5377 5373 5369 5364 5360 5356 5351 5347 5342 5337 5332 5327 5323 5318 5314 5310 5306 5302 5298 5292 5287 5283 5279 5277 5275 5272 5268 5265 5262 5259 5257 5255 5253 5252 5250 5248 5246 5245 5243 5241 5241 5240 5239 5239 5240 5240 5241 5242
5526 5523 5521 5517 5515 5511 5508 5506 5502 5499 5496 5493 5490 5487 5484 5481 5478 5474 5471 5467 5463 5459 5455 5451 5447 5442 5437 5431 5426 5421 5416 5411 5406 5401 5396 5390 5385 5380 5376 5371 5366 5362 5358 5354 5350 5346 5341 5336 5331 5326 5321 5316 5312 5308 5303 5299 5295 5291 5286 5281 5276 5273 5271 5269 5266 5263 5260 5257 5255 5253 5252 5250 5249 5247 5245 5243 5242 5241 5239 5239 5239 5239 5239 5240 5241 5242
5523 5520 5517 5515 5512 5509 5506 5503 5500 5496 5493 5490 5487 5484 5481 5478 5475 5472 5468 5465 5461 5457 5453 5449 5445 5441 5437 5432 5426 5420 5414 5408 5404 5399 5394 5389 5384 5379 5374 5369 5365 5360 5356 5352 5347 5343 5339 5335 5330 5325 5320 5315 5311 5306 5301 5297 5293 5289 5284 5279 5275 5271 5268 5266 5264 5261 5258 5256 5254 5252 5250 5249 5247 5245 5244 5242 5241 5240 5239 5238 5238 5238 5239 5240 5241 5242
5520 5517 5515 5512 5509 5506 5503 5500 5496 5494 5491 5487 5485 5481 5478 5475 5472 5469 5466 5462 5459 5455 5451 5447 5443 5439 5435 5431 5426 5420 5414 5407 5402 5397 5392 5387 5382 5378 5373 5368 5363 5359 5354 5351 5346 5342 5337 5333 5328 5324 5319 5315 5310 5305 5300 5295 5291 5287 5282 5278 5274 5270 5266 5263 5261 5259 5257 5255 5253 5251 5249 5247 5246 5244 5242 5241 5240 5239 5238 5238 5238 5238 5239 5240 5241 5242
5517 5515 5512 5509 5506 5503 5500 5497 5494 5491 5488 5485 5482 5479 5476 5473 5470 5466 5463 5460 5456 5452 5449 5445 5441 5437 5433 5428 5424 5419 5414 5408 5402 5396 5391 5386 5381 5376 5371 5367 5362 5358 5353 5349 5345 5341 5336 5331 5326 5321 5317 5313 5310 5305 5300 5294 5290 5285 5281 5277 5273 5269 5265 5262 5259 5257 5255 5253 5251 5250 5248 5246 5245 5243 5242 5240 5239 5238 5238 5238 5238 5238 5239 5240 5241 5242
5515 5512 5509 5506 5503 5501 5497 5495 5491 5488 5486 5482 5480 5476 5473 5470 5467 5464 5461 5458 5454 5450 5446 5443 5439 5436 5431 5427 5423 5418 5413 5408 5402 5396 5390 5385 5380 5375 5370 5366 5361 5357 5352 5348 5343 5339 5335 5330 5325 5320 5316 5312 5308 5304 5300 5295 5290 5285 5280 5276 5272 5268 5264 5261 5258 5256 5254 5252 5251 5249 5247 5245 5244 5242 5241 5240 5239 5238 5237 5237 5238 5239 5239 5241 5241 5243
5512 5509 5506 5504 5501 5498 5495 5492 5489 5486 5483 5480 5477 5474 5471 5468 5465 5461 5458 5455 5452 5448 5445 5441 5437 5433 5429 5425 5421 5417 5412 5407 5402 5396 5391 5385 5380 5375 5370 5365 5361 5356 5352 5348 5343 5339 5334 5329 5324 5319 5314 5310 5307 5303 5300 5296 5290 5285 5280 5276 5272 5268 5264 5261 5258 5255 5253 5251 5249 5248 5246 5245 5243 5241 5240 5239 5238 5238 5237 5237 5238 5239 5240 5241 5242 5243
5509 5506 5504 5501 5498 5496 5492 5490 5487 5484 5481 5478 5475 5471 5469 5466 5463 5460 5456 5453 5449 5446 5442 5439 5435 5431 5426 5422 5418 5415 5411 5406 5401 5396 5391 5386 5381 5375 5370 5366 5361 5357 5352 5348 5344 5340 5335 5330 5324 5319 5315 5310 5306 5303 5300 5296 5291 5286 5281 5276 5271 5267 5264 5261 5258 5255 5252 5250 5248 5247 5245 5244 5242 5241 5240 5239 5238 5237 5237 5237 5238 5239 5240 5241 5243 5244
5506 5504 5501 5499 5496 5493 5490 5487 5485 5482 5479 5476 5473 5470 5466 5463 5460 5457 5454 5451 5447 5444 5440 5436 5432 5428 5424 5420 5416 5412 5408 5404 5399 5395 5390 5386 5381 5376 5371 5366 5362 5358 5354 5350 5345 5341 5336 5331 5326 5320 5315 5310 5306 5302 5299 5296 5292 5287 5281 5276 5271 5267 5263 5260 5257 5255 5252 5250 5248 5246 5244 5243 5241 5240 5239 5238 5238 5237 5237 5238 5238 5240 5241 5242 5244 5245
5503 5501 5499 5496 5493 5491 5488 5486 5483 5480 5477 5474 5471 5468 5465 5461 5458 5455 5452 5448 5445 5442 5438 5434 5431 5426 5422 5418 5414 5410 5406 5402 5397 5393 5388 5384 5379 5375 5370 5366 5362 5358 5354 5351 5346 5342 5337 5332 5327 5321 5315 5309 5305 5301 5297 5294 5290 5286 5281 5276 5271 5267 5263 5260 5257 5254 5251 5250 5247 5246 5244 5242 5241 5240 5239 5238 5237 5237 5237 5238 5239 5240 5241 5243 5245 5246
5501 5498 5496 5493 5491 5489 5486 5484 5481 5478 5476 5473 5470 5466 5463 5460 5456 5453 5450 5446 5443 5439 5436 5432 5429 5425 5421 5417 5412 5409 5405 5401 5396 5391 5387 5383 5378 5374 5369 5365 5361 5357 5353 5350 5346 5342 5337 5333 5328 5322 5315 5308 5303 5299 5295 5292 5288 5284 5280 5275 5271 5266 5263 5259 5256 5254 5251 5249 5247 5245 5244 5242 5241 5239 5239 5238 5238 5237 5237 5238 5239 5241 5242 5244 5246 5247